Location: Coupvray
(48.8929°N, 2.7967°E)
Time: 04:31:46
(UTC+00:00)

Meteor 1-23 Rocket - Pass Details

Date: 14 July 2020
Orbit: 838 x 887 km, 81.3° (Epoch: 06 August)

Event Time Altitude Azimuth Distance (km) Brightness Sun altitude
Rises 02:24:40 0° 347° (NNW) 3,460 8.0 -12.0°
Reaches altitude 10° 02:27:05 10° 347° (NNW) 2,525 7.3 -11.7°
Maximum altitude 02:32:51 84° 261° (W) 888 4.3 -11.2°
Drops below altitude 10° 02:38:38 10° 173° (S) 2,535 6.3 -10.6°
Enters shadow 02:40:44 - 173° (S) 3,345 6.9 -10.4°
